Regional Weather Roundup
Issued by NWS Mobile, AL

Home | Current Version | Previous Version | Text Only | Print | Product List | Glossary On
Versions: 1 2 3 4 5 6 7 8 9 10 11 12 13 14 15 16 17 18 19 20 21 22 23 24 25 26 27 28 29 30 31 32 33 34 35 36 37 38 39 40 41 42 43 44 45 46 47 48 49
000
ASUS44 KMOB 201210
RWRMOB
REGIONAL WEATHER ROUNDUP
NATIONAL WEATHER SERVICE MOBILE AL
700 AM CDT MON OCT 20 2014

NOTE: "FAIR" INDICATES FEW OR NO CLOUDS BELOW 12,000 FEET WITH NO
      SIGNIFICANT WEATHER AND/OR OBSTRUCTIONS TO VISIBILITY.

  * THESE STATIONS ARE PART OF THE UNIVERSITY OF SOUTH ALABAMA
    MESONET AND ARE NOT UNDER NWS OR FAA QUALITY CONTROL.

ALZ061>064-201300-
COASTAL ALABAMA

CITY           SKY/WX    TMP DP  RH WIND       PRES   REMARKS
MOBILE REG APT PTCLDY    51  49  92 CALM      30.05S
6HR MIN TEMP:  48; 6HR MAX TEMP:  52;

BROOKLEY FIELD CLEAR     49  49 100 NW6       30.06S
6HR MIN TEMP:  49; 6HR MAX TEMP:  54;

USA CAMPUS*      N/A     48  48 100 CALM      30.06F
DOG RIVER*     NOT AVBL


CITY           SKY/WX    TMP DP  RH WIND       PRES   REMARKS
MOUNT VERNON*    N/A     41  41 100 CALM      30.07S
SARALAND*      NOT AVBL
BAY MINETTE*   NOT AVBL
LOXLEY*          N/A     46  46 100 NE3       30.06R
ROBERTSDALE*     N/A     50  48  93 CALM      30.05R
FAIRHOPE*        N/A     48  48 100 E2        30.04S
ELBERTA*         N/A     52  48  87 CALM      30.04R
FOLEY*           N/A     48  48 100 CALM      30.05R
GRAND BAY*       N/A     46  46 100 CALM      30.03S
DAUPHIN ISLND* NOT AVBL
BON SCOUR NWR* NOT AVBL
GULF SHORES    CLEAR     52  49  90 CALM      30.04S

$$

ALZ051>060-201300-
INTERIOR SOUTHWEST AND SOUTH CENTRAL ALABAMA

CITY           SKY/WX    TMP DP  RH WIND       PRES   REMARKS
GREENVILLE     CLEAR     44  42  93 CALM      30.08R
6HR MIN TEMP:  44; 6HR MAX TEMP:  49;

EVERGREEN      CLEAR     45  42  89 CALM      30.08R
6HR MIN TEMP:  44; 6HR MAX TEMP:  49;

CASTLEBERRY*   NOT AVBL
ATMORE*          N/A     46  46 100 VRB3      30.07S
DIXIE*           N/A     46  46 100 CALM      30.05R
ANDALUSIA/OPP  CLEAR     51  46  83 CALM      30.07R
6HR MIN TEMP:  50; 6HR MAX TEMP:  54;

ANDALUSIA*       N/A     50  50 100 NE2       30.06R
FLORALA APT    CLEAR     47  43  86 CALM      30.08R
6HR MIN TEMP:  47; 6HR MAX TEMP:  51;

FLORALA*         N/A     48  48 100 CALM      30.05R

$$

FLZ001>006-201300-
WESTERN FLORIDA PANHANDLE

CITY           SKY/WX    TMP DP  RH WIND       PRES   REMARKS
PENSACOLA      CLEAR     54  50  86 N6        30.04R
6HR MIN TEMP:  53; 6HR MAX TEMP:  57;

NAS PENSACOLA  PTCLDY    52  50  93 N5        30.03S
6HR MIN TEMP:  50; 6HR MAX TEMP:  53;

MILTON         PTCLDY    48  45  89 N5        30.05S
6HR MIN TEMP:  46; 6HR MAX TEMP:  50;

WHTNG S FIELD  CLEAR     51  46  83 CALM      30.05S
6HR MIN TEMP:  47; 6HR MAX TEMP:  55;



CITY           SKY/WX    TMP DP  RH WIND       PRES   REMARKS
WALNUT HILL*   NOT AVBL
JAY*             N/A     48  46  93 VRB5      30.07R
DUKE FIELD     CLEAR     44  43  95 CALM      30.05R
CRESTVIEW      CLEAR     43  42  97 CALM      30.07R
6HR MIN TEMP:  43; 6HR MAX TEMP:  47;

VALPARAISO     PTCLDY    51  48  88 N3        30.04S
6HR MIN TEMP:  51; 6HR MAX TEMP:  54;

DESTIN         CLEAR     61  56  83 NE6       30.04R
6HR MIN TEMP:  57; 6HR MAX TEMP:  62;


$$

MSZ076-079-201300-
INTERIOR SOUTHEAST MISSISSIPPI

CITY           SKY/WX    TMP DP  RH WIND       PRES   REMARKS
LEAKESVILLE*     N/A     48  46  93 E2        30.06S
AGRICOLA*      NOT AVBL

$$

MARINE OBSERVATIONS

STATION/POSITION TIME  TEMP    WIND        PRES    WAVE
                       AIR SEA DIR/SP/G            HT/PER
                 (UTC) (F)     (DEG/KT/KT) (MB)    (FT/S)
PASCAGOULA       1200   57      20/  5/  5 1017.0S
PETIT BOIS ISLND 1200   66      30/  7/  8 1017.3R
GRAND BAY        1100   54     360/  5     1018.0R
CEDAR POINT      1100   61      20/  6     1016.6F
E DAUPHIN ISLAND 1055   67      30/  8/  9 1017.1R
MIDDLE BAY LIGHT 1100   64      20/  8     1016.9R
USCG MOBILE BAY  1200   54 75  350/  2/  6 1016.3S
STATE DOCKS      1200   57 75              1017.3S
MEAHER PARK      1100   55      10/  3     1018.0R
WEEKS BAY        1100   51                   N/A
FORT MORGAN      1200   66      70/  7/  8 1016.6R
12 S ORANGE BCH  1200   71 78   30/  8/ 10 1016.4R   1/ 5
PENSACOLA BAY    1200   60 76   40/  4/  5 1017.2F
64 S DAUPHIN ISL 1122   74 79  100/  8/ 10 1017.0R   2/ 5
67 S FORT MORGAN 1100   73                 1016.3R

$$

SELECTED LOCATIONS ACROSS THE REGION

CITY           SKY/WX    TMP DP  RH WIND       PRES   REMARKS
NEW ORLEANS    PTCLDY    59  56  89 CALM      30.03S
GULFPORT       CLEAR     53  47  79 CALM      30.03S
PASCAGOULA AP  CLEAR     45  45 100 CALM      30.05S
PASCAGOULA*      N/A     50  50 100 CALM      30.04S
HATTIESBURG    CLEAR     45  43  93 CALM      30.08S
LAUREL         CLEAR     43  39  87 N3        30.08S
MERIDIAN       PTCLDY    42  41  96 CALM      30.09S
JACKSON        CLEAR     44  42  93 CALM      30.08R
MONTGOMERY     CLEAR     48  45  89 CALM      30.09S
TROY           CLEAR     43  41  93 CALM      30.09R
KINSTON*       NOT AVBL
GENEVA*          N/A     48  46  93 E2        30.09R
ASHFORD*         N/A     50  50 100 NE2       30.06R
DOTHAN         CLEAR     48  47  96 CALM      30.11R
PANAMA CITY    CLEAR     56  53  90 CALM      30.05R

$$




USA.gov is the U.S. government's official web portal to all federal, state and local government web resources and services.